Location: Eschentzwiller
(47.7125°N, 7.3981°E)
Time: 01:04:54
(UTC+00:00)

NOSS 3-3 (C) - Pass Details

Date: 27 October 2020
Orbit: 825 x 1387 km, 63.4° (Epoch: 22 November)

Event Time Altitude Azimuth Distance (km) Brightness Sun altitude
Rises 17:43:09 0° 190° (S) 3,394 7.0 -14.5°
Reaches altitude 10° 17:45:40 10° 182° (S) 2,503 6.2 -14.9°
Maximum altitude 17:50:55 37° 116° (ESE) 1,394 4.4 -15.8°
Enters shadow 17:54:22 21° 64° (ENE) 2,019 5.1 -16.4°
